Location: Puketoi
(40.5833°S, 176.0167°E)
Time: 15:20:33
(UTC+00:00)

PAYLOAD A - Pass Details

Date: 22 September 2023
Orbit: 691 x 830 km, 98.5° (Epoch: 10 December)

Event Time Altitude Azimuth Distance (km) Brightness Sun altitude
Exits shadow 16:01:23 11° 218° (SW) 2,348 6.3 -23.8°
Drops below altitude 10° 16:01:42 10° 216° (SW) 2,451 6.5 -23.7°
Sets 16:04:27 0° 204° (SSW) 3,403 7.3 -23.2°
